Regional Weather Roundup
Issued by NWS Sterling, VA

Home | Current Version | Previous Version | Graphics & Text | Print | Product List | Glossary On
Versions: 1 2 3 4 5 6 7 8 9 10 11 12 13 14 15 16 17 18 19 20 21 22 23 24 25 26 27 28 29 30 31 32 33 34 35 36 37 38 39 40 41 42 43 44 45 46 47 48 49
000
ASUS41 KLWX 191710
RWRLWX

REGIONAL WEATHER ROUNDUP
NATIONAL WEATHER SERVICE BALTIMORE MD/WASHINGTON DC
1200 PM EST FRI DEC 19 2014

Note: "FAIR" indicates few or no clouds below 12,000 feet
with no significant weather and/or obstructions to visibility.
 TC=TEMPERATURE CELSIUS

 * =Non NWS site. Station does not report precipitation (e.g. rain,
    snow, etc.), thunder, or fog.

DCZ001-MDZ009-015-VAZ040>042-051-053>054-191800-
WASHINGTON METRO

CITY           SKY/WX    TMP DP  RH WIND       PRES   REMARKS
WASHINGTON NAT CLOUDY    40  24  53 NW13      30.17F
DULLES         CLOUDY    36  23  59 NW10      30.16F WCI  28
ANDREWS AFB    CLOUDY    37  24  58 NW15G21   30.14F WCI  28
FT BELVOIR     CLOUDY    38  23  54 NW15      30.17F
QUANTICO       PTSUNNY   38  22  52 NW14      30.19F
COLLEGE PARK*  CLOUDY    37  27  65 NW9       30.16F
LEESBURG*      CLOUDY    37  28  70 N13       30.16F
MANASSAS*      CLOUDY    37  25  60 NW18      30.17F WCI  27
GAITHERSBURG*  CLOUDY    36  23  60 NW14G20   30.17F WCI  27

$$

MDZ006>007-011-014-191800-
BALTIMORE METRO

CITY           SKY/WX    TMP DP  RH WIND       PRES   REMARKS
BWI AIRPORT    PTSUNNY   37  23  56 NW8       30.13F
MD SCIENCE CTR   N/A     38  23  55 MISG      30.14F
MARTIN STATE   CLOUDY    39  27  60 W13G22    30.16S
ANNAPOLIS      CLOUDY    38  24  57 NW12      30.14F
FORT MEADE*    CLOUDY    36  25  64 NW12G17   30.17F WCI  27

$$

MDZ012-015-019>023-191800-
MARYLAND EASTERN SHORE

CITY           SKY/WX    TMP DP  RH WIND       PRES   REMARKS
OCEAN CITY     CLOUDY    39  26  59 NW13G21   30.11F
SALISBURY      CLOUDY    39  26  59 NW13      30.13F
BAY BRIDGE AP*   N/A     37  25  60 NW9       30.14F
EASTON*        CLOUDY    39  28  65 NW9G16    30.17F

$$

MDZ017>025-191800-
SOUTHERN MARYLAND

CITY           SKY/WX    TMP DP  RH WIND       PRES   REMARKS
PATUXENT RIVER CLOUDY    38  23  55 NW15      30.15F
ST INIGOES     CLOUDY    38  22  52 W12       30.15F
LEONARDTOWN*   CLOUDY    36  23  60 NW7       30.17F

$$

MDZ003>005-191800-
NORTH CENTRAL MARYLAND

CITY           SKY/WX    TMP DP  RH WIND       PRES   REMARKS
FREDERICK*     CLOUDY    39  21  48 NW14G21   30.18F
HAGERSTOWN APT PTSUNNY   36  22  56 NW17      30.13F WCI  26
WESTMINSTER*   CLOUDY    36  23  60 NW12G21   30.11S WCI  27

$$

MDZ501>502-191800-
WESTERN MARYLAND

CITY           SKY/WX    TMP DP  RH WIND       PRES   REMARKS
OAKLAND*       CLOUDY    21 N/A N/A W6        30.07F FOG
CUMBERLAND*    CLOUDY    34  23  64 W8        30.22S WCI  27

$$

VAZ025>031-191800-
SHENANDOAH VALLEY

CITY           SKY/WX    TMP DP  RH WIND       PRES   REMARKS
WINCHESTER*    CLOUDY    36  21  55 NW12G23   30.16F WCI  27
FRONT ROYAL*   CLOUDY    34  23  64 NW6       30.16F
LURAY*         PTSUNNY   37  28  70 W6        30.15F
NEW MARKET*    CLOUDY    36  23  61 N6        30.15F
STAUNTON*      SUNNY     38  25  57 NE3       30.14F
WAYNESBORO*    FAIR      36  24  62 CALM      30.11F

$$

WVZ021-048>050-054>055-191800-
EASTERN WEST VIRGINIA PANHANDLE

CITY           SKY/WX    TMP DP  RH WIND       PRES   REMARKS
MARTINSBURG    CLOUDY    37  21  52 NW16      30.15F WCI  28
PETERSBURG*    CLOUDY    34  21  59 W7        30.19F

$$

VAZ036>039-050-191800-
CENTRAL FOOTHILLS

CITY           SKY/WX    TMP DP  RH WIND       PRES   REMARKS
CHARLOTTESVILL SUNNY     42  24  49 VRB6      30.13F
CULPEPER*      PTSUNNY   41  25  52 N6        30.17F
ORANGE*        SUNNY     41  27  56 NE3       30.16F
GORDONSVILLE*  FAIR      40  24  53 CALM      30.14F
WARRENTON*     PTSUNNY   39  29  67 NW16      30.16F

$$

VAZ055>057-191800-
NORTH AND CENTRAL PIEDMONT

CITY           SKY/WX    TMP DP  RH WIND       PRES   REMARKS
FREDERICKSBRG* MOSUNNY   42  26  53 N8        30.16F
STAFFORD*      MOSUNNY   40  24  52 NW14G20   30.21F

$$

NCZ024-NYZ072-PAZ021-071-VAZ022-071-191800-
OTHER REGIONAL OBSERVATIONS

CITY           SKY/WX    TMP DP  RH WIND       PRES   REMARKS
NEW YORK CITY  PTSUNNY   36  19  50 N9G17     30.06F WCI  29
PHILADELPHIA   CLOUDY    39  23  52 NW16      30.09F
PITTSBURGH     LGT SNOW  30  27  88 NW7       30.19F FOG
ROANOKE        MOSUNNY   43  22  43 W14       30.15F
RICHMOND       SUNNY     42  23  46 NW7       30.16F
RALEIGH        MOSUNNY   49  22  34 VRB7      30.15F

$$

ANZ530>537-191800-
MARINE OBSERVATIONS

STATION/POSITION TIME  TEMP    WIND        PRES
                       AIR SEA DIR/SP/G
                 (UTC) (F)     (DEG/KT/KT) (MB)
THOMAS PT LIGHT  1700   37 41  310/ 14/ 16 1021.6F
BALT KEY BRIDGE  1700   37     280/ 14/ 16 1020.4F
COVE POINT       1700   36     340/ 14/ 17 1021.0F
LEWISETTA        1700   38 42  350/ 12/ 19 1021.0F
SOLOMONS ISLAND  1700      44                N/A
PINEY POINT      1700          340/ 17/ 20   N/A

$$




USA.gov is the U.S. government's official web portal to all federal, state and local government web resources and services.